Phuket, Thailand

11:42 AM +07 on April 21, 2018 (GMT +0700)
Phuket International

Weather History for VTSP - August, 2014

Change the Weather History Date:

Tuesday, August 26, 2014

  Actual Average Record
Temperature  
Mean Temperature 80 °F -  
Max Temperature 86 °F 87 °F 93 °F (1997)
Min Temperature 74 °F 76 °F 72 °F (2012)
Cooling Degree Days 15    
Growing Degree Days 30 (Base 50)    
Moisture  
Dew Point 73 °F    
Average Humidity 85    
Maximum Humidity 94    
Minimum Humidity 66    
Precipitation  
Precipitation 2.13 in 0.52 in - ()
Sea Level Pressure  
Sea Level Pressure 29.83 in    
Wind  
Wind Speed 5 mph ()    
Max Wind Speed 17 mph    
Max Gust Speed -    
Visibility 5.0 miles    
Events Rain    
Averages and records for this station are not official NWS values.
T = Trace of Precipitation, MM = Missing Value Source: Averaged Metar Reports

Daily Weather History Graph

Daily Weather History Graph

Search for Another Location

Airport or City:

Astronomy

Aug. 26, 2014 Rise Set
Actual Time 6:19 AM +07 6:37 PM +07
Civil Twilight 5:57 AM +07 6:59 PM +07
Nautical Twilight 5:33 AM +07 7:23 PM +07
Astronomical Twilight 5:08 AM +07 7:48 PM +07
Moon 6:36 AM +07 (8/26) 7:02 PM +07 (8/26)
Length of Visible Light 13h 01m
Length of Day
12h 18m
New Moon, 0% of the Moon is Illuminated
Aug 26
New Moon
Sep 2
First Quarter
Sep 9
Full
Sep 16
Last Quarter
Sep 24
New

Hourly Weather History & Observations

Time (+07) Temp. Heat Index Dew Point Humidity Pressure Visibility Wind Dir Wind Speed Gust Speed Precip Events Conditions
12:00 AM 77.0 °F - 73.4 °F 89% 29.89 in 6.2 mi Variable 2.3 mph - N/A   Mostly Cloudy
12:30 AM 77.0 °F - 73.4 °F 89% 29.86 in 6.2 mi ESE 2.3 mph - N/A   Mostly Cloudy
1:00 AM 79 °F - 76 °F 90% 29.83 in 6 mi Calm Calm - -   Partly Cloudy
1:00 AM 77.0 °F - 73.4 °F 89% 29.86 in 6.2 mi Calm Calm - N/A   Mostly Cloudy
1:30 AM 77.0 °F - 73.4 °F 89% 29.86 in 6.2 mi Variable 1.2 mph - N/A   Mostly Cloudy
2:00 AM 77.0 °F - 73.4 °F 89% 29.86 in 2.5 mi West 10.4 mph - N/A Rain Rain
2:30 AM 77.0 °F - 71.6 °F 83% 29.83 in 5.6 mi SW 5.8 mph - N/A   Mostly Cloudy
3:00 AM 77.0 °F - 71.6 °F 83% 29.83 in 5.6 mi WSW 5.8 mph - N/A   Mostly Cloudy
3:30 AM 75.2 °F - 71.6 °F 89% 29.80 in 5.0 mi Variable 2.3 mph - N/A Rain Light Rain
4:00 AM 76 °F - 74 °F 91% 29.78 in 6 mi Calm Calm - -   Partly Cloudy
4:00 AM 75.2 °F - 71.6 °F 89% 29.80 in 5.6 mi Variable 1.2 mph - N/A   Mostly Cloudy
4:30 AM 75.2 °F - 71.6 °F 89% 29.80 in 5.6 mi Calm Calm - N/A   Mostly Cloudy
5:00 AM 75.2 °F - 71.6 °F 89% 29.83 in 5.6 mi WSW 3.5 mph - N/A   Mostly Cloudy
5:30 AM 75.2 °F - 71.6 °F 89% 29.83 in 5.6 mi Variable 1.2 mph - N/A   Mostly Cloudy
6:30 AM 75.2 °F - 73.4 °F 94% 29.83 in 5.6 mi Variable 2.3 mph - N/A   Mostly Cloudy
7:00 AM 79 °F - 76 °F 89% 29.80 in 6 mi Calm Calm - -   Partly Cloudy
7:00 AM 75.2 °F - 73.4 °F 94% 29.83 in 6.2 mi Variable 1.2 mph - N/A   Mostly Cloudy
7:30 AM 78.8 °F - 75.2 °F 89% 29.86 in 6.2 mi WSW 4.6 mph - N/A   Mostly Cloudy
8:00 AM 82.4 °F 89.5 °F 75.2 °F 79% 29.86 in 6.2 mi WSW 8.1 mph - N/A   Mostly Cloudy
8:30 AM 82.4 °F 88.2 °F 73.4 °F 74% 29.86 in 6.2 mi West 11.5 mph - N/A   Mostly Cloudy
9:00 AM 84.2 °F 90.9 °F 73.4 °F 70% 29.86 in 6.2 mi West 15.0 mph - N/A   Mostly Cloudy
9:30 AM 84.2 °F 92.3 °F 75.2 °F 74% 29.89 in 6.2 mi West 13.8 mph - N/A   Mostly Cloudy
10:00 AM 84 °F - 75 °F 67% 29.85 in 6 mi WSW 8.1 mph - -   Scattered Clouds
10:00 AM 84.2 °F 90.9 °F 73.4 °F 70% 29.89 in 6.2 mi West 15.0 mph - N/A   Mostly Cloudy
10:30 AM 84.2 °F 92.3 °F 75.2 °F 74% 29.89 in 6.2 mi West 13.8 mph - N/A   Mostly Cloudy
11:00 AM 82.4 °F 90.9 °F 77.0 °F 84% 29.89 in 5.0 mi West 17.3 mph - N/A Rain Light Rain
11:30 AM 84.2 °F 90.9 °F 73.4 °F 70% 29.86 in 6.2 mi West 17.3 mph - N/A   Mostly Cloudy
12:00 PM 86.0 °F 93.4 °F 73.4 °F 66% 29.86 in 6.2 mi West 13.8 mph - N/A   Mostly Cloudy
12:30 PM 82.4 °F 88.2 °F 73.4 °F 74% 29.86 in 6.2 mi WNW 15.0 mph - N/A   Mostly Cloudy
1:00 PM 85 °F - 76 °F 68% 29.83 in 5 mi WNW 8.1 mph - - Rain Light Rain
1:00 PM 82.4 °F 88.2 °F 73.4 °F 74% 29.83 in 5.0 mi WNW 15.0 mph - N/A Rain Rain
1:30 PM 80.6 °F 85.4 °F 73.4 °F 79% 29.83 in 6.2 mi WNW 15.0 mph - N/A   Mostly Cloudy
2:00 PM 77.0 °F - 73.4 °F 89% 29.80 in 3.1 mi NW 11.5 mph - N/A Rain Rain
2:30 PM 77.0 °F - 73.4 °F 89% 29.80 in 2.5 mi WNW 12.7 mph - N/A Rain Rain
3:00 PM 77.0 °F - 73.4 °F 89% 29.80 in 3.7 mi WNW 17.3 mph - N/A Rain Rain
3:30 PM 77.0 °F - 71.6 °F 83% 29.80 in 1.9 mi NNW 11.5 mph - N/A Rain Rain
4:00 PM 77 °F - 74 °F 89% 29.78 in 3 mi WNW 5.8 mph - - Rain Light Rain
4:00 PM 75.2 °F - 73.4 °F 94% 29.80 in 3.1 mi WNW 9.2 mph - N/A Rain Rain
4:30 PM 75.2 °F - 71.6 °F 89% 29.77 in 3.7 mi NNW 5.8 mph - N/A Rain Rain
5:00 PM 77.0 °F - 73.4 °F 89% 29.77 in 4.3 mi NNW 6.9 mph - N/A Rain Light Rain
5:30 PM 77.0 °F - 73.4 °F 89% 29.77 in 4.3 mi WNW 9.2 mph - N/A   Mostly Cloudy
7:00 PM 78 °F - 76 °F 92% 29.77 in 6 mi Calm Calm - -   Partly Cloudy
7:00 PM 77.0 °F - 73.4 °F 89% 29.80 in 5.0 mi NNW 8.1 mph - N/A   Mostly Cloudy
7:30 PM 77.0 °F - 73.4 °F 89% 29.80 in 5.0 mi WSW 5.8 mph - N/A   Mostly Cloudy
8:00 PM 77.0 °F - 73.4 °F 89% 29.83 in 5.0 mi NNW 6.9 mph - N/A   Mostly Cloudy
8:30 PM 77.0 °F - 73.4 °F 89% 29.83 in 3.1 mi NNW 4.6 mph - N/A Rain Light Rain
9:00 PM 77.0 °F - 73.4 °F 89% 29.86 in 3.1 mi NW 5.8 mph - N/A Rain Light Rain
9:30 PM 77.0 °F - 71.6 °F 83% 29.86 in 3.1 mi NNW 5.8 mph - N/A Rain Light Rain
10:00 PM 76 °F - 75 °F 94% 29.83 in 4 mi Calm Calm - - Rain Light Rain
10:00 PM 75.2 °F - 71.6 °F 89% 29.86 in 3.1 mi Variable 2.3 mph - N/A Rain Light Rain
10:30 PM 75.2 °F - 71.6 °F 89% 29.86 in 4.3 mi Variable 2.3 mph - N/A   Mostly Cloudy
11:00 PM 75.2 °F - 71.6 °F 89% 29.86 in 5.6 mi Variable 1.2 mph - N/A   Mostly Cloudy
11:30 PM 75.2 °F - 73.4 °F 94% 29.86 in 5.6 mi NW 5.8 mph - N/A   Mostly Cloudy